[Iaude] MPEC G109: 2024 GQ1 [a=2.16,e=0.59,i=7.7,H=28.5]
    mpec at cfa.harvard.edu 
    mpec at cfa.harvard.edu
       
    Tue Apr  9 07:49:04 EDT 2024
    
    
  
M.P.E.C. 2024-G109                                Issued 2024 April 9, 11:47 UT
     The Minor Planet Electronic Circulars contain information on unusual
         minor planets, routine data on comets and natural satellites,
         and occasional editorial announcements.  They are published
    on behalf of Division F of the International Astronomical Union by the
          Minor Planet Center, Smithsonian Astrophysical Observatory,
                          Cambridge, MA 02138, U.S.A.
			  
             Prepared using the Tamkin Foundation Computer Network
                              MPC at CFA.HARVARD.EDU
            URL https://www.minorplanetcenter.net/    ISSN 1523-6714
                                    2024 GQ1                                    
Observations:
     K24G01Q*KC2024 04 07.94112 13 24 04.35 +12 55 04.0          19.2 GXEG109L51
     K24G01Q KC2024 04 07.94244 13 24 07.17 +12 54 40.4          19.5 GXEG109L51
     K24G01Q KC2024 04 07.94376 13 24 09.96 +12 54 15.7          19.2 GXEG109L51
     K24G01Q KC2024 04 07.98618 13 25 42.74 +12 40 48.4          19.9 GXEG109L51
     K24G01Q KC2024 04 07.98823 13 25 47.44 +12 40 07.3          19.5 GXEG109L51
     K24G01Q KC2024 04 07.99029 13 25 52.07 +12 39 26.8          19.7 GXEG109L51
     K24G01Q KC2024 04 08.04130 13 27 52.09 +12 22 00.8          19.4 GXEG109L51
     K24G01Q KC2024 04 08.04336 13 27 57.18 +12 21 17.2          19.5 GXEG109L51
     K24G01Q KC2024 04 08.04542 13 28 02.17 +12 20 32.9          19.4 GXEG109L51
     K24G01Q mC2024 04 08.14980113 34 04.058+11 43 14.66         19.78GVEG109I52
     K24G01Q mC2024 04 08.14997113 34 04.494+11 43 10.60         19.65GVEG109I52
     K24G01Q mC2024 04 08.15014113 34 04.966+11 43 06.13         19.78GVEG109I52
     K24G01Q mC2024 04 08.15031113 34 05.506+11 43 02.78         19.52GVEG109I52
     K24G01Q KC2024 04 08.15433813 34 02.96 +11 40 42.6          19.7 GVEG109H21
     K24G01Q KC2024 04 08.15592113 34 07.48 +11 40 04.7          19.7 GVEG109H21
     K24G01Q KC2024 04 08.15750513 34 12.00 +11 39 27.1          19.7 GVEG109H21
     K24G01Q KC2024 04 08.15866613 34 15.30 +11 38 59.3          19.6 GVEG109H21
     K24G01Q KC2024 04 08.18638313 35 48.46 +11 28 09.8          19.4 GXEG109858
     K24G01Q KC2024 04 08.19086613 36 01.84 +11 26 18.0          19.2 GXEG109858
     K24G01Q KC2024 04 08.19540213 36 15.44 +11 24 24.1          19.6 GXEG109858
     K24G01Q KC2024 04 08.87584 14 40 31.05 +02 10 10.3          18.2 GXEG109L51
     K24G01Q KC2024 04 08.87664 14 40 38.61 +02 09 00.5          18.2 GXEG109L51
     K24G01Q KC2024 04 08.87745 14 40 46.31 +02 07 49.5          18.2 GXEG109L51
     K24G01Q hC2024 04 08.92200914 48 30.71 +00 59 17.8          18.1 GVEG109L01
     K24G01Q hC2024 04 08.92306314 48 41.80 +00 57 36.5          18.5 GVEG109L01
     K24G01Q hC2024 04 08.92659714 49 18.85 +00 51 55.2          17.9 GVEG109L01
     K24G01Q hC2024 04 08.92738314 49 27.14 +00 50 39.0          18.1 GVEG109L01
     K24G01Q hC2024 04 08.92816914 49 35.49 +00 49 22.2          18.2 GVEG109L01
     K24G01Q hC2024 04 08.92895714 49 43.84 +00 48 04.8          18.0 GVEG109L01
     K24G01Q hC2024 04 08.92974814 49 52.21 +00 46 47.5          18.1 GVEG109L01
Observer details:
858 Tebbutt Observatory, Edgewood.  Observer F. B. Zoltowski.  0.51-m f/8.1
    Schmidt-Cassegrain + CCD.
H21 Astronomical Research Observatory, Westfield.  Observer R. Holmes.
    Measurers T. Linder, R. Holmes, L. Horn.  0.76-m f/3.0 astrograph + CCD.
I52 Steward Observatory, Mt. Lemmon Station.  Observer J. K. Hogan.  Measurers
    T. Beuden, V. F. Carvajal, D. Fay, J. B. Fazekas, D. C. Fuls, A. R. Gibbs,
    A. D. Grauer, H. Groeller, J. K. Hogan, R. A. Kowalski, S. M. Larson, G.
    J. Leonard, D. Rankin, R. L. Seaman, F. C. Shelly, K. W. Wierzchos.  1.0-m
    prime focus + CCD.
L01 Visnjan Observatory, Tican.  Observer K. Korlevic.  1.0-m f/2.9 reflector
    + CCD.
L51 MARGO, Nauchnyi.  Observer G. Borisov.  0.50-m f/1.9 reflector + CCD.
Orbital elements:
2024 GQ1                                                 Earth MOID = 0.0004 AU
Epoch 2024 Mar. 31.0 TT = JDT 2460400.5                 Veres                   
M 346.37008              (2000.0)            P               Q                  
n   0.31140584     Peri.  226.88731     -0.39443815     +0.91777860             
a   2.1556829      Node    20.02197     -0.79943801     -0.31812736             
e   0.5893943      Incl.    7.69363     -0.45311964     -0.23764981             
P   3.17           H   28.53          G   0.15           U   7                  
Residuals in seconds of arc
240407 L51  0.0   0.8-    240408 I52  0.1+  0.2+    240408 L51  0.4+  0.1+
240407 L51  0.3+  0.2-    240408 I52  0.3-  0.3-    240408 L51  0.0   0.2+
240407 L51  0.0   0.5-    240408 I52  0.4+  0.3+    240408 L51  0.2+  0.1+
240407 L51  0.2-  0.6-    240408 H21  0.2-  0.0     240408 L01  0.1-  0.9-
240407 L51  0.9+  1.4-    240408 H21  0.0   0.2-    240408 L01  0.8+  0.6-
240407 L51  0.5+  1.3-    240408 H21  0.2+  0.1+    240408 L01  0.6-  0.3+
240408 L51  0.1-  0.6-    240408 H21  0.0   0.1+    240408 L01  0.7-  0.6+
240408 L51  0.5+  0.3-    240408 858  0.6+  0.4+    240408 L01  0.1-  0.3+
240408 L51  0.6-  0.5-    240408 858  0.3+  0.3+    240408 L01  0.1+  0.2-
240408 I52 (0.9+  0.3+)   240408 858  0.1+  0.3+    240408 L01  0.2-  0.1-
Ephemeris:
2024 GQ1                 a,e,i = 2.16, 0.59, 8                   q = 0.8851
Date    TT    R. A. (2000) Decl.     Delta      r    Elong.  Phase     V
2024 03 10    12 21 09.4 +18 07 00   0.2510  1.2318   159.8    16.2    26.9
...
2024 03 25    12 25 36.7 +19 12 34   0.1218  1.1117   158.9    18.9    25.2
...
2024 04 02    12 32 47.6 +18 55 50   0.05816 1.0529   156.0    22.8    23.6
...
2024 04 08    13 26 29.5 +12 43 13   0.01198 1.0125   159.6    20.2    20.0
2024 04 09    15 02 41.9 -00 54 51   0.0052031.0061   151.4    28.4    18.4
2024 04 10    21 16 41.3 -30 27 26   0.0055200.9999    68.7   111.0    21.5
...
2024 04 16    00 03 49.3 -21 54 28   0.05067 0.9649    39.3   138.8    28.7
...
2024 04 24    00 14 51.6 -20 27 21   0.1133  0.9264    43.2   132.0    29.5
...
2024 05 09    00 27 27.3 -17 49 50   0.2334  0.8859    52.2   115.8    29.6
M. P. C. Staff               (C) Copyright 2024 MPC           M.P.E.C. 2024-G109
    
    
More information about the Iaude
mailing list